Location: Casteau
(50.5142°N, 4.0161°E)
Time: 08:47:18
(UTC+00:00)

Timation 1 Rocket - Pass Details

Date: 18 September 2020
Orbit: 897 x 910 km, 70.0° (Epoch: 27 October)

Event Time Altitude Azimuth Distance (km) Brightness Sun altitude
Rises 18:24:09 0° 210° (SSW) 3,503 7.7 -6.2°
Reaches altitude 10° 18:26:37 10° 210° (SSW) 2,567 7.0 -6.6°
Maximum altitude 18:32:34 88° 301° (WNW) 907 4.4 -7.5°
Drops below altitude 10° 18:38:35 10° 31° (NNE) 2,590 6.6 -8.4°
Sets 18:41:05 0° 32° (NNE) 3,537 7.2 -8.8°
